| time (UTC) | temp F | wind direction | speed knots | gust knots | rain 1hr in | rain 24hr in | rain mn in | humidity % | barometer mb |
| 20260507060849 | 61 | 126 | 3.5 | 5.2 | 0.00 | 0.00 | 0.00 | 74 | 1017.0 |
| 20260507060347 | 61 | 126 | 3.5 | 5.2 | 0.00 | 0.00 | 0.00 | 73 | 1017.1 |
| 20260507055850 | 61 | 126 | 3.5 | 5.2 | 0.00 | 0.00 | 0.00 | 73 | 1017.1 |
| 20260507055845 | 61 | 126 | 2.6 | 5.2 | 0.00 | 0.00 | 0.00 | 72 | 1017.1 |
| 20260507055452 | 61 | 126 | 2.6 | 5.2 | 0.00 | 0.00 | 0.00 | 71 | 1017.1 |
| 20260507054345 | 61 | 126 | 2.6 | 5.2 | 0.00 | 0.00 | 0.00 | 71 | 1017.1 |
| 20260507053844 | 61 | 127 | 2.6 | 3.5 | 0.00 | 0.00 | 0.00 | 71 | 1017.1 |
| 20260507053343 | 61 | 127 | 2.6 | 3.5 | 0.00 | 0.00 | 0.00 | 71 | 1017.1 |
| 20260507052843 | 61 | 131 | 0.9 | 3.5 | 0.00 | 0.00 | 0.00 | 71 | 1017.1 |
| 20260507052343 | 61 | 132 | 0.0 | 1.7 | 0.00 | 0.00 | 0.00 | 71 | 1017.0 |
| 20260507051842 | 61 | 139 | 0.0 | 1.7 | 0.00 | 0.00 | 0.00 | 70 | 1017.0 |
| 20260507051343 | 61 | 132 | 0.0 | 1.7 | 0.00 | 0.00 | 0.00 | 70 | 1017.0 |
| 20260507050847 | 61 | 132 | 0.9 | 3.5 | 0.00 | 0.00 | 0.00 | 70 | 1017.1 |
| 20260507050843 | 61 | 132 | 0.9 | 3.5 | 0.00 | 0.00 | 0.00 | 71 | 1017.1 |
| 20260507045843 | 61 | 135 | 1.7 | 4.3 | 0.00 | 0.00 | 0.00 | 72 | 1017.0 |
| 20260507045343 | 62 | 149 | 1.7 | 4.3 | 0.00 | 0.00 | 0.00 | 74 | 1017.0 |
| 20260507044841 | 62 | 150 | 1.7 | 4.3 | 0.00 | 0.00 | 0.00 | 75 | 1017.0 |
| 20260507044341 | 62 | 151 | 1.7 | 4.3 | 0.00 | 0.00 | 0.00 | 75 | 1017.0 |
| 20260507043841 | 62 | 144 | 1.7 | 3.5 | 0.00 | 0.00 | 0.00 | 75 | 1017.0 |
| 20260507043341 | 62 | 141 | 1.7 | 3.5 | 0.00 | 0.00 | 0.00 | 75 | 1017.0 |
| 20260507042841 | 62 | 150 | 1.7 | 3.5 | 0.00 | 0.00 | 0.00 | 75 | 1017.0 |
| 20260507042341 | 62 | 158 | 2.6 | 4.3 | 0.00 | 0.00 | 0.00 | 75 | 1017.0 |
| 20260507041841 | 62 | 132 | 2.6 | 4.3 | 0.00 | 0.00 | 0.00 | 75 | 1016.9 |
| 20260507041342 | 62 | 132 | 2.6 | 3.5 | 0.00 | 0.00 | 0.00 | 75 | 1017.0 |
| 20260507040841 | 62 | 130 | 2.6 | 3.5 | 0.00 | 0.00 | 0.00 | 76 | 1016.9 |
| 20260507040344 | 61 | 130 | 0.9 | 2.6 | 0.00 | 0.00 | 0.00 | 76 | 1016.9 |
| 20260507040340 | 61 | 130 | 1.7 | 2.6 | 0.00 | 0.00 | 0.00 | 76 | 1016.9 |
| 20260507035340 | 61 | 149 | 0.0 | 1.7 | 0.00 | 0.00 | 0.00 | 75 | 1016.9 |
| 20260507034839 | 61 | 145 | 0.0 | 1.7 | 0.00 | 0.00 | 0.00 | 75 | 1016.7 |
| 20260507034339 | 61 | 144 | 0.0 | 2.6 | 0.00 | 0.00 | 0.00 | 75 | 1016.6 |
| 20260507033839 | 61 | 149 | 0.9 | 2.6 | 0.00 | 0.00 | 0.00 | 75 | 1016.6 |
| 20260507033339 | 60 | 147 | 0.9 | 2.6 | 0.00 | 0.00 | 0.00 | 76 | 1016.6 |
| 20260507032839 | 60 | 143 | 0.9 | 2.6 | 0.00 | 0.00 | 0.00 | 75 | 1016.6 |
| 20260507032339 | 60 | 143 | 1.7 | 3.5 | 0.00 | 0.00 | 0.00 | 73 | 1016.5 |
| 20260507031839 | 60 | 142 | 0.9 | 3.5 | 0.00 | 0.00 | 0.00 | 74 | 1016.4 |
| 20260507031338 | 60 | 131 | 0.0 | 1.7 | 0.00 | 0.00 | 0.00 | 75 | 1016.4 |
| 20260507030838 | 60 | 121 | 0.0 | 1.7 | 0.00 | 0.00 | 0.00 | 75 | 1016.4 |
| 20260507030339 | 60 | 115 | 0.0 | 1.7 | 0.00 | 0.00 | 0.00 | 75 | 1016.3 |
| 20260507025843 | 60 | 246 | 1.7 | 2.6 | 0.00 | 0.00 | 0.00 | 77 | 1016.3 |
| 20260507025839 | 60 | 317 | 0.9 | 2.6 | 0.00 | 0.00 | 0.00 | 76 | 1016.3 |
| 20260507024840 | 60 | 245 | 0.9 | 2.6 | 0.00 | 0.00 | 0.00 | 77 | 1016.2 |
| 20260507024836 | 60 | 222 | 0.9 | 2.6 | 0.00 | 0.00 | 0.00 | 73 | 1016.0 |
| 20260507023835 | 60 | 235 | 0.9 | 2.6 | 0.00 | 0.00 | 0.00 | 74 | 1016.0 |
| 20260507023335 | 60 | 220 | 2.6 | 4.3 | 0.00 | 0.00 | 0.00 | 70 | 1016.2 |
| 20260507022833 | 60 | 211 | 1.7 | 4.3 | 0.00 | 0.00 | 0.00 | 72 | 1016.0 |
| 20260507022337 | 60 | 201 | 2.6 | 6.1 | 0.00 | 0.00 | 0.00 | 70 | 1016.0 |
| 20260507022333 | 60 | 225 | 1.7 | 6.1 | 0.00 | 0.00 | 0.00 | 74 | 1015.9 |
| 20260507021334 | 60 | 204 | 4.3 | 6.1 | 0.00 | 0.00 | 0.00 | 71 | 1015.9 |
| 20260507021330 | 60 | 205 | 4.3 | 6.1 | 0.00 | 0.00 | 0.00 | 71 | 1015.8 |
| 20260507020331 | 60 | 213 | 4.3 | 6.1 | 0.00 | 0.00 | 0.00 | 70 | 1015.8 |
| 20260507015828 | 61 | 213 | 4.3 | 6.1 | 0.00 | 0.00 | 0.00 | 70 | 1015.8 |
| 20260507015328 | 61 | 213 | 4.3 | 5.2 | 0.00 | 0.00 | 0.00 | 72 | 1015.8 |
| 20260507014829 | 62 | 214 | 3.5 | 5.2 | 0.00 | 0.00 | 0.00 | 72 | 1015.8 |
| 20260507014329 | 63 | 207 | 3.5 | 5.2 | 0.00 | 0.00 | 0.00 | 76 | 1015.8 |
| 20260507013834 | 63 | 238 | 3.5 | 6.1 | 0.00 | 0.00 | 0.00 | 75 | 1015.8 |
| 20260507013829 | 63 | 221 | 3.5 | 5.2 | 0.00 | 0.00 | 0.00 | 76 | 1015.9 |
| 20260507013328 | 63 | 253 | 3.5 | 6.1 | 0.00 | 0.00 | 0.00 | 75 | 1015.8 |
| 20260507012329 | 63 | 258 | 2.6 | 7.8 | 0.00 | 0.00 | 0.00 | 75 | 1015.8 |
| 20260507011828 | 63 | 218 | 2.6 | 7.8 | 0.00 | 0.00 | 0.00 | 76 | 1015.8 |
| 20260507011329 | 63 | 285 | 2.6 | 7.0 | 0.00 | 0.00 | 0.00 | 76 | 1015.7 |
| 20260507010829 | 62 | 236 | 2.6 | 6.1 | 0.00 | 0.00 | 0.00 | 77 | 1015.7 |
| 20260507010329 | 62 | 242 | 2.6 | 6.1 | 0.00 | 0.00 | 0.00 | 77 | 1015.7 |
| 20260507005828 | 62 | 223 | 2.6 | 6.1 | 0.00 | 0.00 | 0.00 | 78 | 1015.7 |
| 20260507005328 | 62 | 193 | 2.6 | 4.3 | 0.00 | 0.00 | 0.00 | 79 | 1015.7 |
| 20260507004828 | 62 | 229 | 1.7 | 5.2 | 0.00 | 0.00 | 0.00 | 80 | 1015.6 |
| 20260507004328 | 61 | 248 | 1.7 | 5.2 | 0.00 | 0.00 | 0.00 | 81 | 1015.7 |
| 20260507003828 | 61 | 221 | 1.7 | 4.3 | 0.00 | 0.00 | 0.00 | 83 | 1015.7 |
| 20260507003334 | 60 | 226 | 2.6 | 7.0 | 0.00 | 0.00 | 0.00 | 84 | 1015.7 |
| 20260507003329 | 60 | 224 | 1.7 | 4.3 | 0.00 | 0.00 | 0.00 | 84 | 1015.7 |
| 20260507002328 | 60 | 225 | 2.6 | 7.0 | 0.00 | 0.00 | 0.00 | 84 | 1015.7 |
| 20260507001828 | 60 | 244 | 2.6 | 4.3 | 0.00 | 0.00 | 0.00 | 84 | 1015.6 |
| 20260507001327 | 60 | 228 | 2.6 | 6.1 | 0.00 | 0.00 | 0.00 | 83 | 1015.7 |
| 20260507000826 | 60 | 237 | 3.5 | 7.0 | 0.00 | 0.00 | 0.00 | 84 | 1015.7 |
| 20260507000328 | 60 | 284 | 3.5 | 7.0 | 0.00 | 0.00 | 0.00 | 84 | 1015.7 |
| 20260506235824 | 60 | 227 | 2.6 | 7.0 | 0.00 | 0.00 | 0.00 | 85 | 1015.7 |
| 20260506235324 | 60 | 254 | 2.6 | 7.0 | 0.00 | 0.00 | 0.00 | 86 | 1015.6 |
| 20260506234824 | 60 | 227 | 3.5 | 7.0 | 0.00 | 0.00 | 0.00 | 86 | 1015.6 |
| 20260506234325 | 60 | 216 | 3.5 | 7.0 | 0.00 | 0.00 | 0.00 | 86 | 1015.6 |
| 20260506233823 | 60 | 201 | 4.3 | 7.8 | 0.00 | 0.00 | 0.00 | 85 | 1015.6 |
| 20260506233323 | 60 | 175 | 4.3 | 7.8 | 0.00 | 0.00 | 0.00 | 85 | 1015.6 |
| 20260506232826 | 61 | 206 | 3.5 | 9.6 | 0.00 | 0.00 | 0.00 | 83 | 1015.6 |
| 20260506232822 | 60 | 186 | 4.3 | 7.8 | 0.00 | 0.00 | 0.00 | 84 | 1015.7 |
| 20260506231820 | 61 | 180 | 3.5 | 9.6 | 0.00 | 0.00 | 0.00 | 83 | 1015.6 |
| 20260506231320 | 60 | 205 | 4.3 | 8.7 | 0.00 | 0.00 | 0.00 | 83 | 1015.7 |
| 20260506230820 | 60 | 234 | 5.2 | 8.7 | 0.00 | 0.00 | 0.00 | 83 | 1015.8 |
| 20260506230320 | 60 | 215 | 6.1 | 8.7 | 0.00 | 0.00 | 0.00 | 83 | 1015.8 |
| 20260506225818 | 60 | 213 | 6.1 | 9.6 | 0.00 | 0.00 | 0.00 | 82 | 1015.8 |
| 20260506225322 | 60 | 187 | 6.1 | 10.4 | 0.00 | 0.00 | 0.00 | 81 | 1015.9 |
| 20260506225318 | 60 | 200 | 6.1 | 10.4 | 0.00 | 0.00 | 0.00 | 81 | 1015.7 |
| 20260506224319 | 60 | 168 | 6.1 | 10.4 | 0.00 | 0.00 | 0.00 | 81 | 1015.9 |
| 20260506223818 | 59 | 203 | 6.1 | 9.6 | 0.00 | 0.00 | 0.00 | 81 | 1016.0 |
| 20260506223318 | 59 | 178 | 7.0 | 11.3 | 0.00 | 0.00 | 0.00 | 80 | 1016.0 |
| 20260506222816 | 59 | 199 | 7.0 | 11.3 | 0.00 | 0.00 | 0.00 | 79 | 1016.2 |
| 20260506222316 | 60 | 187 | 7.0 | 11.3 | 0.00 | 0.00 | 0.00 | 78 | 1016.2 |
| 20260506221816 | 60 | 213 | 7.0 | 12.2 | 0.00 | 0.00 | 0.00 | 79 | 1016.3 |
| 20260506221316 | 60 | 210 | 7.0 | 12.2 | 0.00 | 0.00 | 0.00 | 78 | 1016.3 |
| 20260506220820 | 60 | 171 | 6.1 | 10.4 | 0.00 | 0.00 | 0.00 | 81 | 1016.5 |
| 20260506220816 | 60 | 198 | 6.1 | 12.2 | 0.00 | 0.00 | 0.00 | 79 | 1016.5 |
| 20260506215818 | 59 | 196 | 7.0 | 10.4 | 0.00 | 0.00 | 0.00 | 81 | 1016.6 |
| 20260506215814 | 59 | 184 | 7.0 | 10.4 | 0.00 | 0.00 | 0.00 | 81 | 1016.5 |
| 20260506214814 | 59 | 196 | 6.1 | 10.4 | 0.00 | 0.00 | 0.00 | 81 | 1016.6 |
| 20260506214314 | 59 | 194 | 5.2 | 10.4 | 0.00 | 0.00 | 0.00 | 82 | 1016.7 |
| 20260506213814 | 58 | 196 | 6.1 | 10.4 | 0.00 | 0.00 | 0.00 | 83 | 1016.7 |
| 20260506213314 | 58 | 187 | 7.0 | 11.3 | 0.00 | 0.00 | 0.00 | 83 | 1016.8 |
| 20260506212814 | 58 | 163 | 6.1 | 11.3 | 0.00 | 0.00 | 0.00 | 82 | 1016.9 |
| 20260506212318 | 59 | 184 | 7.0 | 11.3 | 0.00 | 0.00 | 0.00 | 81 | 1016.9 |
| 20260506212314 | 59 | 220 | 6.1 | 11.3 | 0.00 | 0.00 | 0.00 | 82 | 1016.8 |
| 20260506211313 | 58 | 210 | 7.0 | 12.2 | 0.00 | 0.00 | 0.00 | 82 | 1016.8 |
| 20260506210812 | 58 | 182 | 7.0 | 12.2 | 0.00 | 0.00 | 0.00 | 81 | 1016.8 |
| 20260506210316 | 58 | 161 | 5.2 | 11.3 | 0.00 | 0.00 | 0.00 | 80 | 1016.9 |
| 20260506210312 | 58 | 185 | 6.1 | 11.3 | 0.00 | 0.00 | 0.00 | 81 | 1016.9 |
| 20260506205312 | 59 | 171 | 6.1 | 12.2 | 0.00 | 0.00 | 0.00 | 80 | 1016.9 |
| 20260506204811 | 59 | 209 | 6.1 | 12.2 | 0.00 | 0.00 | 0.00 | 80 | 1017.0 |
| 20260506204311 | 59 | 196 | 5.2 | 10.4 | 0.00 | 0.00 | 0.00 | 79 | 1016.9 |
| 20260506203811 | 59 | 184 | 5.2 | 8.7 | 0.00 | 0.00 | 0.00 | 80 | 1017.0 |
| 20260506203315 | 59 | 185 | 5.2 | 9.6 | 0.00 | 0.00 | 0.00 | 80 | 1017.1 |
| 20260506203311 | 59 | 221 | 5.2 | 8.7 | 0.00 | 0.00 | 0.00 | 79 | 1017.1 |
| 20260506202311 | 59 | 237 | 6.1 | 9.6 | 0.00 | 0.00 | 0.00 | 80 | 1017.2 |
| 20260506201807 | 59 | 220 | 5.2 | 8.7 | 0.00 | 0.00 | 0.00 | 82 | 1017.2 |
| 20260506201308 | 58 | 184 | 5.2 | 10.4 | 0.00 | 0.00 | 0.00 | 83 | 1017.3 |
| 20260506200808 | 58 | 210 | 4.3 | 10.4 | 0.00 | 0.00 | 0.00 | 83 | 1017.3 |
| 20260506200307 | 58 | 194 | 5.2 | 10.4 | 0.00 | 0.00 | 0.00 | 83 | 1017.3 |
| 20260506195808 | 58 | 188 | 6.1 | 10.4 | 0.00 | 0.00 | 0.00 | 83 | 1017.4 |
| 20260506195306 | 58 | 190 | 5.2 | 10.4 | 0.00 | 0.00 | 0.00 | 82 | 1017.4 |
| 20260506194812 | 58 | 202 | 5.2 | 9.6 | 0.00 | 0.00 | 0.00 | 84 | 1017.4 |
| 20260506194807 | 58 | 196 | 5.2 | 8.7 | 0.00 | 0.00 | 0.00 | 83 | 1017.4 |
| 20260506193811 | 58 | 195 | 5.2 | 10.4 | 0.00 | 0.00 | 0.00 | 83 | 1017.5 |
| 20260506193805 | 57 | 194 | 5.2 | 9.6 | 0.00 | 0.00 | 0.00 | 84 | 1017.4 |
| 20260506192812 | 58 | 209 | 5.2 | 9.6 | 0.00 | 0.00 | 0.00 | 82 | 1017.5 |
| 20260506192806 | 57 | 186 | 5.2 | 10.4 | 0.00 | 0.00 | 0.00 | 83 | 1017.5 |
| 20260506191805 | 58 | 182 | 5.2 | 9.6 | 0.00 | 0.00 | 0.00 | 82 | 1017.5 |
| 20260506191306 | 58 | 191 | 4.3 | 9.6 | 0.00 | 0.00 | 0.00 | 82 | 1017.7 |
| 20260506190806 | 58 | 200 | 5.2 | 9.6 | 0.00 | 0.00 | 0.00 | 83 | 1017.8 |
| 20260506190305 | 58 | 192 | 4.3 | 8.7 | 0.00 | 0.00 | 0.00 | 81 | 1017.7 |
| 20260506185806 | 59 | 192 | 3.5 | 8.7 | 0.00 | 0.00 | 0.00 | 84 | 1017.9 |
| 20260506185307 | 57 | 205 | 4.3 | 8.7 | 0.00 | 0.00 | 0.00 | 84 | 1017.9 |
| 20260506184805 | 57 | 209 | 5.2 | 9.6 | 0.00 | 0.00 | 0.00 | 85 | 1017.8 |
| 20260506184312 | 57 | 206 | 5.2 | 8.7 | 0.00 | 0.00 | 0.00 | 85 | 1017.8 |
| 20260506184306 | 57 | 193 | 5.2 | 9.6 | 0.00 | 0.00 | 0.00 | 83 | 1017.8 |
| 20260506183305 | 57 | 217 | 5.2 | 8.7 | 0.00 | 0.00 | 0.00 | 84 | 1017.8 |
| 20260506182805 | 57 | 193 | 4.3 | 7.8 | 0.00 | 0.00 | 0.00 | 83 | 1017.8 |
| 20260506182307 | 57 | 197 | 3.5 | 7.8 | 0.00 | 0.00 | 0.00 | 82 | 1017.9 |
| 20260506181806 | 58 | 196 | 4.3 | 7.8 | 0.00 | 0.00 | 0.00 | 82 | 1017.9 |
| 20260506181306 | 58 | 200 | 3.5 | 7.0 | 0.00 | 0.00 | 0.00 | 83 | 1017.9 |
| 20260506180804 | 58 | 201 | 2.6 | 7.0 | 0.00 | 0.00 | 0.00 | 82 | 1017.9 |
| 20260506180304 | 58 | 146 | 3.5 | 7.0 | 0.00 | 0.00 | 0.00 | 82 | 1017.9 |
| 20260506175804 | 58 | 215 | 4.3 | 8.7 | 0.00 | 0.00 | 0.00 | 84 | 1018.0 |
| 20260506175306 | 58 | 139 | 4.3 | 8.7 | 0.00 | 0.00 | 0.00 | 84 | 1018.0 |
| 20260506174808 | 56 | 143 | 3.5 | 7.0 | 0.00 | 0.00 | 0.00 | 86 | 1017.9 |
| 20260506174804 | 57 | 135 | 3.5 | 7.0 | 0.00 | 0.00 | 0.00 | 86 | 1017.9 |
| 20260506173804 | 56 | 124 | 3.5 | 7.0 | 0.00 | 0.00 | 0.00 | 88 | 1017.7 |
| 20260506173303 | 56 | 191 | 4.3 | 7.8 | 0.00 | 0.00 | 0.00 | 88 | 1017.8 |
| 20260506172803 | 56 | 153 | 3.5 | 7.8 | 0.00 | 0.00 | 0.00 | 88 | 1017.7 |
| 20260506172301 | 56 | 173 | 3.5 | 7.0 | 0.00 | 0.00 | 0.00 | 88 | 1017.8 |
| 20260506171801 | 56 | 174 | 3.5 | 7.0 | 0.00 | 0.00 | 0.00 | 88 | 1017.8 |
| 20260506171301 | 56 | 150 | 2.6 | 7.0 | 0.00 | 0.00 | 0.00 | 88 | 1017.7 |
| 20260506170805 | 56 | 165 | 2.6 | 7.0 | 0.00 | 0.00 | 0.00 | 86 | 1017.7 |
| 20260506170801 | 56 | 138 | 3.5 | 7.0 | 0.00 | 0.00 | 0.00 | 87 | 1017.7 |
| 20260506165801 | 57 | 128 | 1.7 | 5.2 | 0.00 | 0.00 | 0.00 | 85 | 1017.7 |
| 20260506165305 | 57 | 118 | 0.9 | 4.3 | 0.00 | 0.00 | 0.00 | 86 | 1017.5 |
| 20260506164801 | 57 | 167 | 1.7 | 6.1 | 0.00 | 0.00 | 0.00 | 86 | 1017.5 |
| 20260506164301 | 57 | 175 | 1.7 | 6.1 | 0.00 | 0.00 | 0.00 | 87 | 1017.4 |
| 20260506163803 | 56 | 140 | 1.7 | 6.1 | 0.00 | 0.00 | 0.00 | 85 | 1017.5 |
| 20260506163759 | 56 | 134 | 2.6 | 6.1 | 0.00 | 0.00 | 0.00 | 87 | 1017.5 |
| 20260506163259 | 56 | 158 | 2.6 | 6.1 | 0.00 | 0.00 | 0.00 | 87 | 1017.4 |
| 20260506162259 | 56 | 185 | 1.7 | 5.2 | 0.00 | 0.00 | 0.00 | 84 | 1017.5 |
| 20260506161759 | 56 | 122 | 1.7 | 6.1 | 0.00 | 0.00 | 0.00 | 84 | 1017.5 |
| 20260506161259 | 57 | 120 | 2.6 | 6.1 | 0.00 | 0.00 | 0.00 | 82 | 1017.5 |
| 20260506160759 | 57 | 77 | 2.6 | 6.1 | 0.00 | 0.00 | 0.00 | 81 | 1017.4 |
| 20260506160257 | 57 | 142 | 2.6 | 6.1 | 0.00 | 0.00 | 0.00 | 81 | 1017.4 |
| 20260506155757 | 57 | 74 | 1.7 | 6.1 | 0.00 | 0.00 | 0.00 | 80 | 1017.4 |
| 20260506155257 | 57 | 142 | 1.7 | 6.1 | 0.00 | 0.00 | 0.00 | 80 | 1017.4 |
| 20260506154801 | 57 | 141 | 2.6 | 7.0 | 0.00 | 0.00 | 0.00 | 80 | 1017.4 |
| 20260506154757 | 57 | 130 | 1.7 | 6.1 | 0.00 | 0.00 | 0.00 | 80 | 1017.4 |
| 20260506154404 | 57 | 73 | 2.6 | 7.0 | 0.00 | 0.00 | 0.00 | 80 | 1017.4 |
| 20260506153301 | 56 | 96 | 0.9 | 5.2 | 0.00 | 0.00 | 0.00 | 80 | 1017.4 |
| 20260506153257 | 56 | 73 | 1.7 | 6.1 | 0.00 | 0.00 | 0.00 | 81 | 1017.4 |
| 20260506152904 | 56 | 133 | 0.9 | 4.3 | 0.00 | 0.00 | 0.00 | 80 | 1017.3 |
| 20260506151757 | 56 | 124 | 1.7 | 5.2 | 0.00 | 0.00 | 0.00 | 79 | 1017.3 |
| 20260506151255 | 56 | 122 | 2.6 | 5.2 | 0.00 | 0.00 | 0.00 | 79 | 1017.3 |
| 20260506150755 | 56 | 132 | 1.7 | 5.2 | 0.00 | 0.00 | 0.00 | 78 | 1017.3 |
| 20260506150304 | 57 | 126 | 0.0 | 5.2 | 0.00 | 0.00 | 0.00 | 75 | 1017.3 |
| 20260506145755 | 56 | 128 | 0.0 | 2.6 | 0.00 | 0.00 | 0.00 | 75 | 1017.3 |
| 20260506145256 | 56 | 124 | 0.0 | 2.6 | 0.00 | 0.00 | 0.00 | 73 | 1017.3 |
| 20260506144759 | 56 | 163 | 0.9 | 3.5 | 0.00 | 0.00 | 0.00 | 74 | 1017.3 |
| 20260506144755 | 56 | 164 | 0.0 | 2.6 | 0.00 | 0.00 | 0.00 | 73 | 1017.4 |
| 20260506143754 | 56 | 135 | 0.0 | 3.5 | 0.00 | 0.00 | 0.00 | 74 | 1017.3 |
| 20260506143255 | 56 | 162 | 0.0 | 1.7 | 0.00 | 0.00 | 0.00 | 72 | 1017.3 |
| 20260506142755 | 55 | 162 | 0.0 | 0.0 | 0.00 | 0.00 | 0.00 | 74 | 1017.4 |
| 20260506142255 | 55 | 162 | 0.0 | 0.0 | 0.00 | 0.00 | 0.00 | 74 | 1017.3 |
| 20260506141755 | 54 | 162 | 0.0 | 0.0 | 0.00 | 0.00 | 0.00 | 75 | 1017.2 |
| 20260506141254 | 54 | 162 | 0.0 | 0.0 | 0.00 | 0.00 | 0.00 | 76 | 1017.2 |
| 20260506140755 | 53 | 162 | 0.0 | 0.9 | 0.00 | 0.00 | 0.00 | 77 | 1017.2 |
| 20260506140254 | 53 | 162 | 0.0 | 0.9 | 0.00 | 0.00 | 0.00 | 77 | 1017.1 |
| 20260506135755 | 53 | 162 | 0.0 | 0.0 | 0.00 | 0.00 | 0.00 | 78 | 1017.1 |
| 20260506135255 | 53 | 162 | 0.0 | 0.0 | 0.00 | 0.00 | 0.00 | 78 | 1017.1 |
| 20260506134759 | 53 | 162 | 0.0 | 0.0 | 0.00 | 0.00 | 0.00 | 76 | 1017.0 |
| 20260506134755 | 53 | 162 | 0.0 | 0.0 | 0.00 | 0.00 | 0.00 | 77 | 1017.0 |
| 20260506133753 | 53 | 162 | 0.0 | 0.0 | 0.00 | 0.00 | 0.00 | 76 | 1017.0 |
| 20260506133256 | 53 | 162 | 0.0 | 0.9 | 0.00 | 0.00 | 0.00 | 77 | 1017.0 |
| 20260506133252 | 53 | 162 | 0.0 | 0.9 | 0.00 | 0.00 | 0.00 | 76 | 1017.0 |
| 20260506132252 | 53 | 162 | 0.0 | 0.9 | 0.00 | 0.00 | 0.00 | 77 | 1016.9 |
| 20260506131758 | 52 | 162 | 0.9 | 3.5 | 0.00 | 0.00 | 0.00 | 78 | 1016.9 |
| 20260506131753 | 53 | 162 | 0.0 | 2.6 | 0.00 | 0.00 | 0.00 | 78 | 1017.0 |
| 20260506131401 | 52 | 157 | 0.9 | 3.5 | 0.00 | 0.00 | 0.00 | 78 | 1016.8 |
| 20260506130252 | 53 | 162 | 0.9 | 2.6 | 0.00 | 0.00 | 0.00 | 78 | 1016.8 |
| 20260506125751 | 53 | 158 | 0.9 | 2.6 | 0.00 | 0.00 | 0.00 | 78 | 1016.7 |
| 20260506125251 | 53 | 144 | 0.9 | 2.6 | 0.00 | 0.00 | 0.00 | 77 | 1016.7 |
| 20260506124751 | 52 | 140 | 0.0 | 1.7 | 0.00 | 0.00 | 0.00 | 78 | 1016.7 |
| 20260506124251 | 52 | 142 | 0.0 | 1.7 | 0.00 | 0.00 | 0.00 | 78 | 1016.7 |
| 20260506123751 | 53 | 142 | 0.0 | 1.7 | 0.00 | 0.00 | 0.00 | 78 | 1016.6 |
| 20260506123251 | 53 | 142 | 0.9 | 3.5 | 0.00 | 0.00 | 0.00 | 78 | 1016.6 |
| 20260506122752 | 53 | 141 | 1.7 | 3.5 | 0.00 | 0.00 | 0.00 | 77 | 1016.5 |
| 20260506122256 | 53 | 134 | 1.7 | 3.5 | 0.00 | 0.00 | 0.00 | 77 | 1016.4 |
| 20260506122252 | 53 | 135 | 2.6 | 3.5 | 0.00 | 0.00 | 0.00 | 77 | 1016.4 |
| 20260506121858 | 53 | 130 | 0.9 | 1.7 | 0.00 | 0.00 | 0.00 | 77 | 1016.4 |
| 20260506121326 | 53 | 130 | 0.9 | 1.7 | 0.00 | 0.00 | 0.00 | 77 | 1016.4 |
| 20260506121252 | 53 | 134 | 0.9 | 3.5 | 0.00 | 0.00 | 0.00 | 77 | 1016.4 |
| 20260506120251 | 53 | 138 | 0.0 | 4.3 | 0.00 | 0.00 | 0.00 | 77 | 1016.5 |
| 20260506115751 | 53 | 146 | 0.9 | 4.3 | 0.00 | 0.00 | 0.00 | 77 | 1016.4 |
| 20260506115255 | 53 | 155 | 2.6 | 4.3 | 0.00 | 0.00 | 0.00 | 77 | 1016.3 |
| 20260506115251 | 53 | 156 | 1.7 | 4.3 | 0.00 | 0.00 | 0.00 | 77 | 1016.4 |
| 20260506114859 | 53 | 153 | 2.6 | 4.3 | 0.00 | 0.00 | 0.00 | 77 | 1016.3 |
| 20260506113751 | 53 | 147 | 3.5 | 4.3 | 0.00 | 0.00 | 0.00 | 77 | 1016.3 |
| 20260506113251 | 53 | 136 | 2.6 | 3.5 | 0.00 | 0.00 | 0.00 | 77 | 1016.3 |
| 20260506112751 | 53 | 134 | 2.6 | 3.5 | 0.00 | 0.00 | 0.00 | 77 | 1016.3 |
| 20260506112251 | 53 | 136 | 2.6 | 3.5 | 0.00 | 0.00 | 0.00 | 77 | 1016.3 |
| 20260506111755 | 53 | 142 | 1.7 | 2.6 | 0.00 | 0.00 | 0.00 | 77 | 1016.2 |
| 20260506111751 | 53 | 146 | 1.7 | 3.5 | 0.00 | 0.00 | 0.00 | 77 | 1016.2 |
| 20260506110751 | 53 | 137 | 1.7 | 2.6 | 0.00 | 0.00 | 0.00 | 78 | 1016.2 |
| 20260506110248 | 53 | 137 | 2.6 | 4.3 | 0.00 | 0.00 | 0.00 | 77 | 1016.2 |
| 20260506105748 | 53 | 137 | 3.5 | 4.3 | 0.00 | 0.00 | 0.00 | 77 | 1016.3 |
| 20260506105248 | 53 | 138 | 3.5 | 4.3 | 0.00 | 0.00 | 0.00 | 76 | 1016.3 |
| 20260506104747 | 53 | 141 | 2.6 | 4.3 | 0.00 | 0.00 | 0.00 | 77 | 1016.3 |
| 20260506104247 | 53 | 131 | 1.7 | 3.5 | 0.00 | 0.00 | 0.00 | 78 | 1016.3 |
| 20260506103745 | 53 | 129 | 0.9 | 2.6 | 0.00 | 0.00 | 0.00 | 80 | 1016.3 |
| 20260506103244 | 52 | 85 | 0.0 | 0.9 | 0.00 | 0.00 | 0.00 | 80 | 1016.3 |
| 20260506102744 | 52 | 85 | 0.0 | 1.7 | 0.00 | 0.00 | 0.00 | 80 | 1016.3 |
| 20260506102244 | 52 | 85 | 0.0 | 1.7 | 0.00 | 0.00 | 0.00 | 81 | 1016.3 |
| 20260506101744 | 52 | 85 | 0.0 | 1.7 | 0.00 | 0.00 | 0.00 | 82 | 1016.3 |
| 20260506101244 | 52 | 85 | 0.0 | 1.7 | 0.00 | 0.00 | 0.00 | 82 | 1016.3 |
| 20260506100744 | 52 | 85 | 0.9 | 2.6 | 0.00 | 0.00 | 0.00 | 83 | 1016.3 |
| 20260506100244 | 52 | 85 | 0.9 | 2.6 | 0.00 | 0.00 | 0.00 | 83 | 1016.3 |
| 20260506095744 | 52 | 85 | 0.9 | 2.6 | 0.00 | 0.00 | 0.00 | 83 | 1016.3 |
| 20260506095247 | 52 | 109 | 0.9 | 1.7 | 0.00 | 0.00 | 0.00 | 83 | 1016.4 |
| 20260506095242 | 52 | 143 | 0.9 | 1.7 | 0.00 | 0.00 | 0.00 | 82 | 1016.4 |
| 20260506094242 | 52 | 109 | 0.0 | 1.7 | 0.00 | 0.00 | 0.00 | 82 | 1016.4 |
| 20260506093746 | 52 | 109 | 0.0 | 1.7 | 0.00 | 0.00 | 0.00 | 82 | 1016.5 |
| 20260506093742 | 52 | 109 | 0.0 | 1.7 | 0.00 | 0.00 | 0.00 | 82 | 1016.5 |
| 20260506092742 | 52 | 109 | 0.9 | 2.6 | 0.00 | 0.00 | 0.00 | 81 | 1016.4 |
| 20260506092242 | 53 | 109 | 1.7 | 3.5 | 0.00 | 0.00 | 0.00 | 82 | 1016.4 |
| 20260506091742 | 53 | 109 | 0.9 | 3.5 | 0.00 | 0.00 | 0.00 | 81 | 1016.4 |
| 20260506091242 | 53 | 109 | 0.9 | 2.6 | 0.00 | 0.00 | 0.00 | 81 | 1016.4 |
| 20260506090742 | 53 | 109 | 0.9 | 2.6 | 0.00 | 0.00 | 0.00 | 81 | 1016.5 |
| 20260506090240 | 53 | 109 | 0.9 | 2.6 | 0.00 | 0.00 | 0.00 | 80 | 1016.5 |
| 20260506085740 | 53 | 109 | 0.9 | 2.6 | 0.00 | 0.00 | 0.00 | 80 | 1016.6 |
| 20260506085240 | 53 | 109 | 0.9 | 2.6 | 0.00 | 0.00 | 0.00 | 80 | 1016.6 |
| 20260506084740 | 53 | 109 | 0.0 | 1.7 | 0.00 | 0.00 | 0.00 | 80 | 1016.7 |
| 20260506084240 | 53 | 109 | 0.9 | 3.5 | 0.00 | 0.00 | 0.00 | 80 | 1016.7 |
| 20260506083740 | 53 | 109 | 1.7 | 3.5 | 0.00 | 0.00 | 0.00 | 80 | 1016.8 |
| 20260506083244 | 52 | 111 | 1.7 | 3.5 | 0.00 | 0.00 | 0.00 | 81 | 1016.8 |
| 20260506083240 | 53 | 109 | 1.7 | 3.5 | 0.00 | 0.00 | 0.00 | 80 | 1016.7 |
| 20260506082847 | 52 | 111 | 0.9 | 3.5 | 0.00 | 0.00 | 0.00 | 81 | 1016.8 |
| 20260506081741 | 52 | 127 | 0.9 | 3.5 | 0.00 | 0.00 | 0.00 | 81 | 1016.8 |
| 20260506081238 | 52 | 146 | 0.0 | 0.0 | 0.00 | 0.00 | 0.00 | 82 | 1016.8 |
| 20260506080742 | 52 | 146 | 0.0 | 0.0 | 0.00 | 0.00 | 0.00 | 82 | 1016.8 |
| 20260506080738 | 52 | 146 | 0.0 | 0.0 | 0.00 | 0.00 | 0.00 | 82 | 1016.8 |
| 20260506080345 | 52 | 146 | 0.0 | 0.0 | 0.00 | 0.00 | 0.00 | 82 | 1016.9 |
| 20260506073236 | 52 | 146 | 0.0 | 0.0 | 0.00 | 0.00 | 0.00 | 83 | 1016.9 |
| 20260506072734 | 53 | 146 | 0.0 | 1.7 | 0.00 | 0.00 | 0.00 | 84 | 1016.8 |
| 20260506072233 | 53 | 146 | 0.0 | 1.7 | 0.00 | 0.00 | 0.00 | 83 | 1016.9 |
| 20260506071734 | 53 | 146 | 0.0 | 2.6 | 0.00 | 0.00 | 0.00 | 83 | 1016.8 |
| 20260506071234 | 53 | 148 | 1.7 | 3.5 | 0.00 | 0.00 | 0.00 | 82 | 1016.7 |
| 20260506070733 | 53 | 200 | 2.6 | 3.5 | 0.00 | 0.00 | 0.00 | 81 | 1016.7 |
| 20260506070238 | 53 | 192 | 2.6 | 4.3 | 0.00 | 0.00 | 0.00 | 81 | 1016.5 |
| 20260506070234 | 53 | 206 | 2.6 | 3.5 | 0.00 | 0.00 | 0.00 | 81 | 1016.5 |
| 20260506062231 | 53 | 237 | 4.3 | 8.7 | 0.00 | 0.00 | 0.00 | 80 | 1016.2 |
| 20260506061730 | 53 | 225 | 5.2 | 8.7 | 0.00 | 0.00 | 0.00 | 79 | 1016.3 |
| 20260506061230 | 53 | 229 | 4.3 | 8.7 | 0.00 | 0.00 | 0.00 | 80 | 1016.2 |